EW6167 Weather Reports


time (UTC)temp
C
wind
direction
speed
KPH
gust
KPH
rain 1hr
cm
rain 24hr
cm
rain mn
cm
humidity
%
barometer
mb
20260831072539 7 200 14.5 0.0 0.00 0.00 0.00 56 1010.9
20260831072053 7 215 12.9 0.0 0.00 0.00 0.00 55 1010.8
20260831071513 7 209 14.5 0.0 0.00 0.00 0.00 54 1010.7
20260831071022 7 191 16.1 0.0 0.00 0.00 0.00 53 1010.8
20260831070532 8 194 14.5 0.0 0.00 0.00 0.00 52 1010.7
20260831070044 8 179 12.9 0.0 0.00 0.00 0.00 51 1010.7
20260831065547 8 217 11.3 0.0 0.00 0.00 0.00 48 1010.8
20260831065057 7 194 11.3 0.0 0.00 0.00 0.00 54 1010.5
20260831064518 7 217 12.9 0.0 0.00 0.00 0.00 58 1010.5
20260831064038 7 218 12.9 0.0 0.00 0.00 0.00 57 1010.6
20260831063547 8 225 12.9 0.0 0.00 0.00 0.00 54 1010.5
20260831063056 8 214 12.9 0.0 0.00 0.00 0.00 52 1010.3
20260831062558 8 203 12.9 0.0 0.00 0.00 0.00 53 1010.2
20260831062009 8 199 12.9 0.0 0.00 0.00 0.00 54 1010.0
20260831061521 7 202 11.3 0.0 0.00 0.00 0.00 56 1010.1
20260831061032 7 200 11.3 0.0 0.00 0.00 0.00 56 1010.2
20260831060537 8 209 11.3 0.0 0.00 0.00 0.00 55 1010.0
20260831060046 8 192 11.3 0.0 0.00 0.00 0.00 54 1010.0
20260831055557 8 200 11.3 0.0 0.00 0.00 0.00 52 1010.0
20260831055009 8 201 9.7 0.0 0.00 0.00 0.00 52 1010.0
20260831054523 8 187 8.0 0.0 0.00 0.00 0.00 54 1009.8
20260831054033 8 180 8.0 0.0 0.00 0.00 0.00 53 1009.7
20260831053545 8 194 9.7 0.0 0.00 0.00 0.00 53 1009.8
20260831053038 8 190 9.7 0.0 0.00 0.00 0.00 54 1009.7
20260831052549 7 209 8.0 0.0 0.00 0.00 0.00 57 1009.7
20260831052101 7 202 6.4 0.0 0.00 0.00 0.00 58 1009.6
20260831051512 8 192 8.0 0.0 0.00 0.00 0.00 56 1009.6
20260831051033 8 201 8.0 0.0 0.00 0.00 0.00 54 1009.5
20260831050543 8 198 8.0 0.0 0.00 0.00 0.00 53 1009.5
20260831050049 8 190 8.0 0.0 0.00 0.00 0.00 56 1009.4
20260831045558 8 185 9.7 0.0 0.00 0.00 0.00 56 1009.5
20260831045012 8 200 9.7 0.0 0.00 0.00 0.00 56 1009.4
20260831044526 8 198 9.7 0.0 0.00 0.00 0.00 57 1009.4
20260831044034 8 193 9.7 0.0 0.00 0.00 0.00 56 1009.3
20260831043604 8 196 8.0 0.0 0.00 0.00 0.00 56 1009.4
20260831043020 9 190 8.0 0.0 0.00 0.00 0.00 53 1009.4
20260831042538 9 195 9.7 0.0 0.00 0.00 0.00 53 1009.3
20260831042054 9 202 8.0 0.0 0.00 0.00 0.00 52 1009.3
20260831041505 10 201 8.0 0.0 0.00 0.00 0.00 51 1009.2
20260831041025 10 222 9.7 0.0 0.00 0.00 0.00 50 1009.2
20260831040538 10 221 11.3 0.0 0.00 0.00 0.00 50 1009.3
20260831040052 10 219 11.3 0.0 0.00 0.00 0.00 49 1009.3
20260831035520 10 235 9.7 0.0 0.00 0.00 0.00 51 1009.4
20260831035034 9 235 6.4 0.0 0.00 0.00 0.00 52 1009.4
20260831034544 10 189 6.4 0.0 0.00 0.00 0.00 50 1009.2
20260831034052 10 194 6.4 0.0 0.00 0.00 0.00 48 1009.3
20260831033601 11 228 6.4 0.0 0.00 0.00 0.00 47 1009.2
20260831033015 11 228 8.0 0.0 0.00 0.00 0.00 46 1009.0
20260831032534 11 217 8.0 0.0 0.00 0.00 0.00 44 1009.0
20260831032047 11 236 6.4 0.0 0.00 0.00 0.00 43 1008.9
20260831031511 12 211 8.0 0.0 0.00 0.00 0.00 40 1008.9
20260831031024 12 211 4.8 0.0 0.00 0.00 0.00 36 1008.7
20260831030543 13 236 3.2 0.0 0.00 0.00 0.00 34 1008.7
20260831030055 13 218 3.2 0.0 0.00 0.00 0.00 33 1008.7
20260831025559 12 218 4.8 0.0 0.00 0.00 0.00 35 1008.5
20260831025103 12 218 4.8 0.0 0.00 0.00 0.00 38 1008.3
20260831024511 12 82 3.2 0.0 0.00 0.00 0.00 40 1008.2
20260831024036 13 80 3.2 0.0 0.00 0.00 0.00 39 1007.9
20260831023545 14 83 4.8 0.0 0.00 0.00 0.00 36 1007.9
20260831023057 15 82 4.8 0.0 0.00 0.00 0.00 34 1007.8
20260831022505 15 88 4.8 0.0 0.00 0.00 0.00 30 1007.5
20260831022024 16 157 3.2 0.0 0.00 0.00 0.00 30 1007.6
20260831021544 16 342 4.8 0.0 0.00 0.00 0.00 29 1007.4
20260831021058 16 280 4.8 0.0 0.00 0.00 0.00 28 1007.2
20260831020505 17 295 3.2 0.0 0.00 0.00 0.00 28 1007.2
20260831020018 17 295 4.8 0.0 0.00 0.00 0.00 27 1007.1
20260831015537 17 295 6.4 0.0 0.00 0.00 0.00 27 1007.1
20260831015047 18 289 6.4 0.0 0.00 0.00 0.00 25 1007.2
20260831014559 18 279 6.4 0.0 0.00 0.00 0.00 24 1007.1
20260831014102 18 285 4.8 0.0 0.00 0.00 0.00 25 1007.1
20260831013521 18 307 6.4 0.0 0.00 0.00 0.00 25 1007.1
20260831013032 18 307 6.4 0.0 0.00 0.00 0.00 24 1007.1
20260831012546 18 305 8.0 0.0 0.00 0.00 0.00 24 1007.1
20260831012052 18 306 6.4 0.0 0.00 0.00 0.00 23 1007.2
20260831011605 18 299 6.4 0.0 0.00 0.00 0.00 22 1007.2
20260831011014 19 300 11.3 0.0 0.00 0.00 0.00 22 1007.2
20260831010540 19 298 14.5 0.0 0.00 0.00 0.00 21 1007.2
20260831010058 20 315 16.1 0.0 0.00 0.00 0.00 20 1007.2
20260831005517 20 298 19.3 0.0 0.00 0.00 0.00 19 1007.2
20260831005037 20 300 20.9 0.0 0.00 0.00 0.00 18 1007.2
20260831004547 20 284 20.9 0.0 0.00 0.00 0.00 18 1007.1
20260831004059 20 292 19.3 0.0 0.00 0.00 0.00 18 1007.0
20260831003525 21 298 16.1 0.0 0.00 0.00 0.00 18 1006.9
20260831003043 21 290 16.1 0.0 0.00 0.00 0.00 18 1006.9
20260831002558 21 309 16.1 0.0 0.00 0.00 0.00 18 1006.9
20260831002016 21 311 16.1 0.0 0.00 0.00 0.00 18 1006.9
20260831001531 21 296 12.9 0.0 0.00 0.00 0.00 17 1006.9
20260831001044 21 290 14.5 0.0 0.00 0.00 0.00 18 1006.9
20260831000552 21 267 17.7 0.0 0.00 0.00 0.00 16 1006.9
20260830235525 21 289 14.5 0.0 0.00 0.00 0.00 17 1007.0
20260830235040 21 280 16.1 0.0 0.00 0.00 0.00 16 1007.0
20260830234559 21 279 16.1 0.0 0.00 0.00 0.00 15 1006.9
20260830234015 21 265 14.5 0.0 0.00 0.00 0.00 16 1007.0
20260830233536 21 277 14.5 0.0 0.00 0.00 0.00 17 1007.1
20260830233054 21 296 14.5 0.0 0.00 0.00 0.00 17 1006.9
20260830232516 21 270 14.5 0.0 0.00 0.00 0.00 15 1006.9
20260830232026 21 265 16.1 0.0 0.00 0.00 0.00 16 1007.0
20260830231541 21 296 17.7 0.0 0.00 0.00 0.00 16 1006.9
20260830231046 21 334 14.5 0.0 0.00 0.00 0.00 16 1006.7
20260830230511 21 257 16.1 0.0 0.00 0.00 0.00 16 1007.0
20260830230019 21 300 19.3 0.0 0.00 0.00 0.00 17 1006.8
20260830225531 21 265 19.3 0.0 0.00 0.00 0.00 15 1006.8
20260830225047 21 278 20.9 0.0 0.00 0.00 0.00 15 1006.8
20260830224502 21 277 17.7 0.0 0.00 0.00 0.00 16 1006.8
20260830224024 21 257 11.3 0.0 0.00 0.00 0.00 15 1006.8
20260830223533 21 234 12.9 0.0 0.00 0.00 0.00 16 1007.0
20260830223043 21 258 14.5 0.0 0.00 0.00 0.00 16 1007.1
20260830222558 21 211 12.9 0.0 0.00 0.00 0.00 17 1007.1
20260830222020 21 256 19.3 0.0 0.00 0.00 0.00 17 1007.1
20260830221531 21 300 17.7 0.0 0.00 0.00 0.00 17 1007.2
20260830221044 21 300 14.5 0.0 0.00 0.00 0.00 17 1007.2
20260830220502 21 213 17.7 0.0 0.00 0.00 0.00 16 1007.2
20260830220025 21 281 19.3 0.0 0.00 0.00 0.00 17 1007.2
20260830215536 21 250 17.7 0.0 0.00 0.00 0.00 17 1007.3
20260830215048 21 267 16.1 0.0 0.00 0.00 0.00 17 1007.2
20260830214509 20 275 12.9 0.0 0.00 0.00 0.00 16 1007.2
20260830214020 20 233 9.7 0.0 0.00 0.00 0.00 17 1007.3
20260830213542 20 263 9.7 0.0 0.00 0.00 0.00 19 1007.3
20260830213001 20 205 11.3 0.0 0.00 0.00 0.00 19 1007.3
20260830212518 20 257 8.0 0.0 0.00 0.00 0.00 19 1007.3
20260830212030 20 259 6.4 0.0 0.00 0.00 0.00 18 1007.4
20260830211543 20 188 9.7 0.0 0.00 0.00 0.00 16 1007.2
20260830211007 20 264 11.3 0.0 0.00 0.00 0.00 20 1007.3
20260830210514 20 289 14.5 0.0 0.00 0.00 0.00 21 1007.4
20260830210026 20 281 14.5 0.0 0.00 0.00 0.00 19 1007.5
20260830205535 20 304 9.7 0.0 0.00 0.00 0.00 21 1007.5
20260830205042 20 309 9.7 0.0 0.00 0.00 0.00 20 1007.5
20260830204601 20 265 11.3 0.0 0.00 0.00 0.00 20 1007.6
20260830204009 20 209 9.7 0.0 0.00 0.00 0.00 21 1007.5
20260830203517 20 215 12.9 0.0 0.00 0.00 0.00 21 1007.6
20260830203038 19 196 17.7 0.0 0.00 0.00 0.00 22 1007.7
20260830202600 19 250 20.9 0.0 0.00 0.00 0.00 21 1007.7
20260830202020 19 259 17.7 0.0 0.00 0.00 0.00 23 1007.7
20260830201537 18 263 19.3 0.0 0.00 0.00 0.00 22 1007.7
20260830201040 18 286 22.5 0.0 0.00 0.00 0.00 25 1007.8
20260830200549 19 293 19.3 0.0 0.00 0.00 0.00 25 1007.6
20260830200010 18 290 11.3 0.0 0.00 0.00 0.00 25 1007.6
20260830195524 18 242 9.7 0.0 0.00 0.00 0.00 24 1007.6
20260830195037 18 275 9.7 0.0 0.00 0.00 0.00 26 1007.7
20260830194550 18 229 16.1 0.0 0.00 0.00 0.00 24 1007.5
20260830194015 18 209 20.9 0.0 0.00 0.00 0.00 23 1007.5
20260830193527 18 250 20.9 0.0 0.00 0.00 0.00 26 1007.5
20260830193050 18 314 19.3 0.0 0.00 0.00 0.00 29 1007.4
20260830192557 18 297 17.7 0.0 0.00 0.00 0.00 29 1007.4
20260830192004 18 284 17.7 0.0 0.00 0.00 0.00 28 1007.5
20260830191526 17 272 19.3 0.0 0.00 0.00 0.00 29 1007.3
20260830191036 18 326 22.5 0.0 0.00 0.00 0.00 29 1007.4
20260830190546 17 299 20.9 0.0 0.00 0.00 0.00 31 1007.3
20260830190058 17 313 20.9 0.0 0.00 0.00 0.00 31 1007.5
20260830185516 17 319 20.9 0.0 0.00 0.00 0.00 31 1007.6
20260830185034 17 284 20.9 0.0 0.00 0.00 0.00 35 1007.7
20260830184543 17 300 20.9 0.0 0.00 0.00 0.00 36 1007.2
20260830184059 16 271 22.5 0.0 0.00 0.00 0.00 35 1007.3
20260830183511 17 288 22.5 0.0 0.00 0.00 0.00 37 1007.4
20260830183024 16 298 20.9 0.0 0.00 0.00 0.00 40 1007.3
20260830182534 16 281 17.7 0.0 0.00 0.00 0.00 40 1007.4
20260830182047 16 321 12.9 0.0 0.00 0.00 0.00 44 1007.3
20260830181509 15 355 12.9 0.0 0.00 0.00 0.00 48 1007.4
20260830181028 15 351 14.5 0.0 0.00 0.00 0.00 50 1007.7
20260830180541 15 355 8.0 0.0 0.00 0.00 0.00 51 1007.7
20260830180107 15 323 9.7 0.0 0.00 0.00 0.00 51 1007.6
20260830175510 15 192 11.3 0.0 0.00 0.00 0.00 51 1007.4
20260830175031 15 330 11.3 0.0 0.00 0.00 0.00 55 1007.5
20260830174542 15 5 12.9 0.0 0.00 0.00 0.00 54 1007.6
20260830174049 15 51 12.9 0.0 0.00 0.00 0.00 60 1007.5
20260830173559 14 9 11.3 0.0 0.00 0.00 0.00 63 1007.5
20260830173004 13 22 11.3 0.0 0.00 0.00 0.00 64 1007.5
20260830172512 13 32 11.3 0.0 0.00 0.00 0.00 65 1007.5
20260830172016 13 34 11.3 0.0 0.00 0.00 0.00 68 1007.4
20260830171537 13 34 9.7 0.0 0.00 0.00 0.00 68 1007.3
20260830171038 13 5 9.7 0.0 0.00 0.00 0.00 70 1007.2
20260830170555 13 53 9.7 0.0 0.00 0.00 0.00 71 1007.2
20260830170106 13 20 11.3 0.0 0.00 0.00 0.00 70 1007.3
20260830165509 12 14 11.3 0.0 0.00 0.00 0.00 72 1007.2
20260830165012 12 17 12.9 0.0 0.00 0.00 0.00 73 1007.2
20260830164520 12 9 12.9 0.0 0.00 0.00 0.00 74 1007.2
20260830164029 12 5 11.3 0.0 0.00 0.00 0.00 75 1007.2
20260830163548 12 355 11.3 0.0 0.00 0.00 0.00 76 1007.1
20260830163058 12 350 11.3 0.0 0.00 0.00 0.00 77 1007.3
20260830162503 12 19 12.9 0.0 0.00 0.00 0.00 77 1007.2
20260830162018 12 20 11.3 0.0 0.00 0.00 0.00 79 1007.2
20260830161537 12 9 11.3 0.0 0.00 0.00 0.00 78 1007.1
20260830161050 11 24 11.3 0.0 0.00 0.00 0.00 78 1007.1
20260830160503 11 14 12.9 0.0 0.00 0.00 0.00 80 1007.0
20260830160029 11 360 14.5 0.0 0.00 0.00 0.00 79 1007.0
20260830155545 11 355 14.5 0.0 0.00 0.00 0.00 80 1006.9
20260830155057 11 355 14.5 0.0 0.00 0.00 0.00 81 1006.9
20260830154515 11 333 16.1 0.0 0.00 0.00 0.00 80 1006.9
20260830154042 11 355 16.1 0.0 0.00 0.00 0.00 81 1006.9
20260830153551 11 345 16.1 0.0 0.00 0.00 0.00 81 1006.9
20260830153005 11 338 17.7 0.0 0.00 0.00 0.00 83 1006.8
20260830152525 11 346 19.3 0.0 0.00 0.00 0.00 82 1006.7
20260830152044 11 346 20.9 0.0 0.00 0.00 0.00 82 1006.7
20260830151602 11 344 19.3 0.0 0.00 0.00 0.00 82 1006.6
20260830151007 11 346 16.1 0.0 0.00 0.00 0.00 83 1006.5
20260830150515 11 333 16.1 0.0 0.00 0.00 0.00 83 1006.5
20260830150038 10 350 14.5 0.0 0.00 0.00 0.00 83 1006.4
20260830145552 10 360 14.5 0.0 0.00 0.00 0.00 82 1006.3
20260830145056 10 355 14.5 0.0 0.00 0.00 0.00 83 1006.3
20260830144504 11 360 14.5 0.0 0.00 0.00 0.00 83 1006.2
20260830144011 10 9 14.5 0.0 0.00 0.00 0.00 84 1006.1
20260830143523 10 348 14.5 0.0 0.00 0.00 0.00 84 1006.0
20260830143039 10 355 12.9 0.0 0.00 0.00 0.00 83 1005.9
20260830142555 10 350 9.7 0.0 0.00 0.00 0.00 82 1005.8
20260830142005 10 56 14.5 0.0 0.00 0.00 0.00 80 1005.9
20260830141533 11 355 14.5 0.0 0.00 0.00 0.00 76 1006.0
20260830141040 12 338 11.3 0.0 0.00 0.00 0.00 68 1005.7
20260830140554 12 82 14.5 0.0 0.00 0.00 0.00 58 1005.6
20260830140008 12 138 17.7 0.0 0.00 0.00 0.00 58 1005.4
20260830135532 12 144 17.7 0.0 0.00 0.00 0.00 58 1005.1
20260830135052 12 126 19.3 0.0 0.00 0.00 0.00 58 1005.1
20260830134602 12 126 22.5 0.0 0.00 0.00 0.00 57 1004.9
20260830134016 12 111 22.5 0.0 0.00 0.00 0.00 58 1004.9
20260830133531 12 190 22.5 0.0 0.00 0.00 0.00 59 1004.6
20260830133104 12 162 22.5 0.0 0.00 0.00 0.00 61 1004.5
20260830132600 12 135 19.3 0.0 0.00 0.00 0.00 62 1004.5
20260830132009 12 195 17.7 0.0 0.00 0.00 0.00 61 1004.4
20260830131527 12 128 17.7 0.0 0.00 0.00 0.00 61 1004.1
20260830131045 12 127 16.1 0.0 0.00 0.00 0.00 62 1004.3
20260830130553 11 172 17.7 0.0 0.00 0.00 0.00 63 1004.5
20260830130104 11 141 20.9 0.0 0.00 0.00 0.00 65 1004.6
20260830125519 11 125 17.7 0.0 0.00 0.00 0.00 67 1004.5
20260830125026 10 157 11.3 0.0 0.00 0.00 0.00 74 1004.6
20260830124540 10 109 8.0 0.0 0.00 0.00 0.00 80 1004.2
20260830124050 10 107 8.0 0.0 0.00 0.00 0.00 83 1004.4
20260830123501 10 87 9.7 0.0 0.00 0.00 0.00 83 1004.9
20260830123026 10 87 9.7 0.0 0.00 0.00 0.00 83 1004.9
20260830122532 10 76 8.0 0.0 0.00 0.00 0.00 82 1005.0
20260830122041 10 87 8.0 0.0 0.00 0.00 0.00 81 1005.1
20260830121557 10 87 8.0 0.0 0.00 0.00 0.00 79 1004.3
20260830121019 11 263 9.7 0.0 0.00 0.00 0.00 76 1005.5
20260830120528 11 281 11.3 0.0 0.00 0.00 0.00 76 1005.1
20260830120033 11 332 9.7 0.0 0.00 0.00 0.00 76 1004.3
20260830115544 11 351 8.0 0.0 0.00 0.00 0.00 77 1004.5
20260830115059 11 20 8.0 0.0 0.00 0.00 0.00 77 1004.5
20260830114522 11 343 6.4 0.0 0.00 0.00 0.00 76 1004.5
20260830114026 11 342 6.4 0.0 0.00 0.00 0.00 75 1004.3
20260830113535 11 342 6.4 0.0 0.00 0.00 0.00 75 1004.2
20260830113050 11 319 6.4 0.0 0.00 0.00 0.00 74 1004.3
20260830112556 11 316 8.0 0.0 0.00 0.00 0.00 73 1004.4
20260830112010 11 346 3.2 0.0 0.00 0.00 0.00 72 1004.5
20260830111533 11 12 0.0 0.0 0.00 0.00 0.00 72 1004.4
20260830111042 11 12 1.6 0.0 0.00 0.00 0.00 72 1004.6
20260830110552 11 12 3.2 0.0 0.00 0.00 0.00 72 1004.6
20260830110004 11 12 9.7 0.0 0.00 0.00 0.00 71 1004.5
20260830105522 11 360 11.3 0.0 0.00 0.00 0.00 71 1004.6
20260830105043 12 15 11.3 0.0 0.00 0.00 0.00 71 1004.6
20260830104557 12 350 11.3 0.0 0.00 0.00 0.00 71 1004.9
20260830104103 12 313 11.3 0.0 0.00 0.00 0.00 69 1004.7
20260830103520 13 345 11.3 0.0 0.00 0.00 0.00 66 1004.9
20260830103033 13 341 9.7 0.0 0.00 0.00 0.00 64 1004.9
20260830102547 13 286 8.0 0.0 0.00 0.00 0.00 65 1004.8
20260830102013 13 292 6.4 0.0 0.00 0.00 0.00 61 1004.7
20260830101526 13 246 8.0 0.0 0.00 0.00 0.00 60 1004.7
20260830101041 13 246 9.7 0.0 0.00 0.00 0.00 61 1004.7
20260830100552 13 215 12.9 0.0 0.00 0.00 0.00 64 1004.8
20260830100002 13 232 17.7 0.0 0.00 0.00 0.00 64 1004.7
20260830095517 12 208 17.7 0.0 0.00 0.00 0.00 70 1004.5
20260830095037 12 215 14.5 0.0 0.00 0.00 0.00 70 1004.5
20260830094544 12 216 12.9 0.0 0.00 0.00 0.00 70 1004.4
20260830094001 13 207 16.1 0.0 0.00 0.00 0.00 69 1004.4
20260830093523 13 187 16.1 0.0 0.00 0.00 0.00 69 1003.9
20260830093044 13 148 17.7 0.0 0.00 0.00 0.00 70 1003.7
20260830092552 13 152 17.7 0.0 0.00 0.00 0.00 70 1003.5
20260830092015 13 130 16.1 0.0 0.00 0.00 0.00 69 1003.5
20260830091525 13 166 14.5 0.0 0.00 0.00 0.00 66 1003.6
20260830091050 13 139 12.9 0.0 0.00 0.00 0.00 65 1003.6
20260830090555 13 182 11.3 0.0 0.00 0.00 0.00 64 1003.6
20260830090001 13 145 8.0 0.0 0.00 0.00 0.00 65 1003.8
20260830085511 13 176 4.8 0.0 0.00 0.00 0.00 65 1004.0
20260830085024 13 236 4.8 0.0 0.00 0.00 0.00 64 1004.2
20260830084548 13 236 6.4 0.0 0.00 0.00 0.00 63 1004.3
20260830084101 13 229 6.4 0.0 0.00 0.00 0.00 64 1004.4
20260830083528 12 234 4.8 0.0 0.00 0.00 0.00 64 1004.4
20260830083044 13 146 3.2 0.0 0.00 0.00 0.00 65 1004.3
20260830082553 13 146 3.2 0.0 0.00 0.00 0.00 62 1004.5
20260830082103 13 146 6.4 0.0 0.00 0.00 0.00 63 1004.4
20260830081601 13 150 4.8 0.0 0.00 0.00 0.00 63 1004.5
20260830081021 13 163 3.2 0.0 0.00 0.00 0.00 62 1004.5
20260830080542 13 229 3.2 0.0 0.00 0.00 0.00 63 1004.5
20260830080057 13 229 1.6 0.0 0.00 0.00 0.00 65 1004.6
20260830075504 13 5 0.0 0.0 0.00 0.00 0.00 64 1004.7
20260830075013 13 355 0.0 0.0 0.00 0.00 0.00 64 1004.7
20260830074519 13 355 0.0 0.0 0.00 0.00 0.00 64 1004.6
20260830074047 13 355 4.8 0.0 0.00 0.00 0.00 62 1004.6
20260830073558 14 355 4.8 0.0 0.00 0.00 0.00 60 1004.8
20260830073110 14 355 3.2 0.0 0.00 0.00 0.00 60 1004.8